Location: ?
(35.2180°N, 139.6392°E)
Time: 18:53:41
(UTC+00:00)

Cosmos 2237 Rocket - Pass Details

Date: 05 August 2024
Orbit: 835 x 848 km, 71.0° (Epoch: 19 September)

Event Time Altitude Azimuth Distance (km) Brightness Sun altitude
Exits shadow 17:19:57 20° 140° (SE) 1,834 3.8 -26.7°
Maximum altitude 17:22:21 27° 102° (ESE) 1,551 3.8 -26.4°
Drops below altitude 10° 17:27:01 10° 46° (NE) 2,457 5.6 -25.8°
Sets 17:29:46 0° 35° (NE) 3,394 6.7 -25.4°
